Precipitable_Water
0.34 0.23 0.23 0.22 0.23 0.28 0.28 0.25 0.26 0.34 0.31 0.30 0.31 0.30 0.29 0.25 0.25 0.27 0.29 0.30 0.31 0.28 0.26 0.24 0.23 0.21 0.21 0.22 0.23 0.26 0.30 0.27 0.25 0.26 0.26 0.29 0.32 0.33 0.35 0.36 0.36 0.36 0.38 0.43 0.47 0.54 0.57 0.61 0.66 0.72 0.75 0.72 0.69 0.64 0.61 0.57 0.59 0.59 0.60 0.56 0.49 0.53 0.50 0.54 0.62 0.49 0.47 0.43 0.43 0.42 0.37 0.39 0.41 0.36 0.40 0.55 0.59 0.56 0.58 0.51 0.61 0.60 0.65 0.62 0.56 0.54
0.37 0.29 0.26 0.29 0.33 0.35 0.37 0.34 0.34 0.32 0.31 0.29 0.28 0.27 0.27 0.26 0.24 0.25 0.29 0.34 0.34 0.27 0.25 0.26 0.25 0.24 0.24 0.24 0.24 0.25 0.30 0.28 0.26 0.26 0.27 0.28 0.32 0.34 0.35 0.36 0.37 0.39 0.40 0.41 0.46 0.51 0.58 0.60 0.62 0.66 0.71 0.72 0.66 0.63 0.65 0.62 0.64 0.68 0.65 0.61 0.60 0.56 0.50 0.58 0.59 0.46 0.43 0.41 0.41 0.42 0.39 0.41 0.42 0.40 0.41 0.44 0.49 0.55 0.66 0.58 0.62 0.53 0.63 0.61 0.60 0.62
0.33 0.26 0.29 0.33 0.38 0.41 0.39 0.37 0.35 0.31 0.28 0.26 0.25 0.25 0.24 0.24 0.23 0.23 0.26 0.28 0.30 0.27 0.23 0.24 0.22 0.22 0.21 0.20 0.22 0.24 0.26 0.30 0.29 0.28 0.28 0.29 0.30 0.31 0.32 0.33 0.35 0.38 0.40 0.41 0.41 0.47 0.52 0.57 0.60 0.62 0.66 0.70 0.72 0.67 0.63 0.65 0.63 0.68 0.64 0.67 0.67 0.61 0.54 0.54 0.53 0.50 0.44 0.45 0.45 0.47 0.43 0.44 0.48 0.50 0.53 0.55 0.56 0.54 0.58 0.62 0.66 0.65 0.61 0.56 0.54 0.57
0.28 0.27 0.31 0.37 0.40 0.37 0.37 0.35 0.35 0.33 0.29 0.24 0.22 0.21 0.18 0.20 0.21 0.20 0.33 0.33 0.34 0.29 0.24 0.25 0.23 0.22 0.21 0.20 0.19 0.25 0.27 0.28 0.32 0.31 0.30 0.31 0.29 0.29 0.29 0.31 0.32 0.33 0.35 0.35 0.39 0.41 0.45 0.53 0.59 0.60 0.64 0.67 0.72 0.71 0.65 0.65 0.64 0.64 0.66 0.68 0.69 0.65 0.58 0.53 0.53 0.56 0.51 0.50 0.48 0.48 0.51 0.48 0.51 0.53 0.59 0.63 0.52 0.50 0.51 0.54 0.58 0.60 0.57 0.53 0.52 0.57
0.28 0.37 0.42 0.41 0.40 0.37 0.34 0.35 0.33 0.31 0.27 0.28 0.26 0.24 0.24 0.23 0.26 0.24 0.29 0.32 0.35 0.35 0.33 0.28 0.21 0.16 0.12 0.14 0.20 0.22 0.27 0.28 0.29 0.32 0.32 0.31 0.30 0.29 0.29 0.31 0.32 0.34 0.37 0.39 0.40 0.41 0.45 0.51 0.56 0.59 0.62 0.65 0.67 0.68 0.65 0.65 0.66 0.65 0.64 0.68 0.71 0.67 0.62 0.56 0.55 0.51 0.52 0.50 0.53 0.52 0.56 0.60 0.58 0.57 0.51 0.44 0.44 0.45 0.47 0.51 0.56 0.53 0.55 0.53 0.54 0.56
0.29 0.36 0.43 0.39 0.37 0.36 0.33 0.31 0.33 0.31 0.28 0.27 0.29 0.28 0.25 0.27 0.28 0.29 0.29 0.27 0.25 0.23 0.26 0.23 0.16 0.16 0.18 0.21 0.21 0.26 0.30 0.28 0.27 0.26 0.28 0.30 0.30 0.30 0.30 0.32 0.33 0.37 0.41 0.41 0.41 0.42 0.46 0.49 0.55 0.59 0.61 0.62 0.64 0.65 0.67 0.66 0.66 0.66 0.66 0.68 0.71 0.70 0.67 0.58 0.52 0.53 0.53 0.53 0.59 0.56 0.55 0.55 0.56 0.50 0.45 0.40 0.39 0.42 0.40 0.43 0.44 0.54 0.54 0.55 0.54 0.56
0.32 0.40 0.37 0.35 0.34 0.33 0.32 0.30 0.32 0.32 0.26 0.24 0.23 0.29 0.30 0.29 0.27 0.27 0.26 0.26 0.20 0.14 0.17 0.26 0.19 0.16 0.25 0.22 0.22 0.24 0.26 0.28 0.28 0.25 0.25 0.27 0.28 0.30 0.33 0.35 0.35 0.34 0.36 0.37 0.38 0.41 0.44 0.49 0.54 0.60 0.61 0.62 0.60 0.62 0.70 0.68 0.66 0.66 0.67 0.69 0.72 0.70 0.67 0.61 0.54 0.55 0.58 0.59 0.56 0.51 0.50 0.48 0.45 0.46 0.47 0.49 0.47 0.46 0.47 0.50 0.46 0.48 0.53 0.55 0.55 0.56
0.29 0.30 0.31 0.32 0.31 0.30 0.28 0.24 0.26 0.25 0.25 0.23 0.31 0.29 0.28 0.27 0.27 0.26 0.24 0.22 0.20 0.20 0.30 0.27 0.26 0.19 0.18 0.21 0.19 0.24 0.25 0.25 0.26 0.26 0.25 0.25 0.27 0.29 0.31 0.33 0.35 0.36 0.35 0.33 0.33 0.41 0.51 0.55 0.56 0.59 0.63 0.63 0.61 0.63 0.67 0.67 0.66 0.63 0.65 0.70 0.72 0.71 0.67 0.61 0.58 0.55 0.58 0.54 0.54 0.50 0.49 0.47 0.47 0.49 0.51 0.48 0.48 0.47 0.50 0.48 0.49 0.52 0.51 0.55 0.54 0.55
0.26 0.27 0.30 0.28 0.27 0.26 0.24 0.24 0.27 0.29 0.24 0.26 0.36 0.35 0.31 0.29 0.25 0.26 0.21 0.18 0.18 0.18 0.17 0.24 0.24 0.20 0.18 0.19 0.17 0.19 0.22 0.23 0.25 0.26 0.27 0.26 0.24 0.23 0.25 0.30 0.34 0.34 0.33 0.34 0.37 0.40 0.49 0.55 0.55 0.56 0.60 0.63 0.63 0.63 0.62 0.64 0.64 0.64 0.66 0.70 0.72 0.72 0.66 0.63 0.59 0.55 0.57 0.60 0.58 0.55 0.52 0.51 0.56 0.52 0.51 0.52 0.54 0.53 0.51 0.50 0.51 0.49 0.52 0.52 0.46 0.53
0.29 0.28 0.33 0.30 0.26 0.24 0.23 0.24 0.26 0.27 0.25 0.28 0.27 0.29 0.30 0.27 0.26 0.22 0.19 0.18 0.20 0.20 0.16 0.19 0.26 0.21 0.17 0.19 0.23 0.25 0.19 0.21 0.26 0.30 0.31 0.31 0.28 0.24 0.23 0.26 0.28 0.30 0.34 0.38 0.41 0.43 0.47 0.54 0.54 0.56 0.61 0.62 0.62 0.62 0.62 0.65 0.66 0.65 0.65 0.68 0.69 0.70 0.66 0.63 0.59 0.56 0.56 0.59 0.58 0.56 0.55 0.53 0.54 0.53 0.53 0.56 0.55 0.52 0.48 0.52 0.47 0.52 0.52 0.56 0.57 0.54
0.30 0.33 0.34 0.28 0.24 0.24 0.24 0.25 0.26 0.28 0.29 0.32 0.31 0.28 0.25 0.22 0.19 0.20 0.20 0.20 0.20 0.16 0.16 0.19 0.20 0.19 0.15 0.17 0.19 0.21 0.23 0.25 0.28 0.29 0.29 0.29 0.31 0.29 0.27 0.28 0.30 0.33 0.37 0.38 0.42 0.46 0.48 0.55 0.55 0.56 0.56 0.57 0.60 0.61 0.62 0.63 0.65 0.66 0.64 0.67 0.68 0.69 0.66 0.63 0.60 0.56 0.54 0.58 0.57 0.54 0.54 0.53 0.52 0.51 0.52 0.47 0.48 0.54 0.50 0.50 0.51 0.50 0.53 0.53 0.54 0.54
0.22 0.26 0.25 0.21 0.23 0.22 0.23 0.23 0.29 0.30 0.27 0.24 0.22 0.19 0.19 0.20 0.21 0.21 0.22 0.23 0.17 0.14 0.18 0.22 0.22 0.24 0.18 0.18 0.22 0.19 0.25 0.30 0.29 0.25 0.26 0.28 0.33 0.33 0.31 0.31 0.33 0.33 0.36 0.39 0.42 0.47 0.50 0.53 0.58 0.58 0.58 0.58 0.59 0.60 0.59 0.62 0.67 0.69 0.69 0.68 0.68 0.68 0.65 0.61 0.61 0.60 0.56 0.57 0.55 0.56 0.57 0.53 0.54 0.51 0.47 0.48 0.50 0.51 0.47 0.47 0.48 0.51 0.50 0.52 0.54 0.55
0.21 0.22 0.25 0.27 0.23 0.15 0.18 0.19 0.23 0.27 0.25 0.20 0.19 0.19 0.16 0.16 0.18 0.17 0.21 0.18 0.17 0.16 0.22 0.25 0.24 0.21 0.19 0.21 0.28 0.28 0.26 0.32 0.33 0.29 0.23 0.23 0.28 0.32 0.33 0.32 0.33 0.34 0.34 0.38 0.41 0.46 0.49 0.50 0.55 0.57 0.59 0.59 0.60 0.59 0.59 0.63 0.69 0.73 0.72 0.69 0.68 0.67 0.65 0.62 0.61 0.61 0.61 0.59 0.56 0.58 0.58 0.56 0.55 0.52 0.49 0.49 0.51 0.52 0.48 0.48 0.48 0.49 0.49 0.51 0.51 0.56
0.24 0.27 0.26 0.26 0.27 0.26 0.19 0.17 0.18 0.20 0.25 0.23 0.19 0.19 0.17 0.15 0.15 0.14 0.16 0.19 0.20 0.22 0.26 0.26 0.30 0.23 0.24 0.24 0.29 0.30 0.31 0.27 0.29 0.32 0.30 0.22 0.24 0.32 0.35 0.35 0.34 0.34 0.34 0.36 0.41 0.43 0.47 0.49 0.52 0.54 0.56 0.59 0.63 0.64 0.63 0.68 0.70 0.71 0.70 0.69 0.67 0.66 0.66 0.65 0.62 0.61 0.62 0.60 0.58 0.60 0.59 0.56 0.56 0.52 0.52 0.51 0.49 0.52 0.49 0.51 0.51 0.48 0.47 0.46 0.47 0.48
0.21 0.22 0.26 0.27 0.25 0.28 0.25 0.22 0.22 0.23 0.25 0.26 0.28 0.24 0.22 0.21 0.19 0.16 0.18 0.17 0.19 0.21 0.23 0.26 0.24 0.21 0.21 0.24 0.33 0.33 0.31 0.28 0.29 0.28 0.29 0.29 0.27 0.32 0.38 0.40 0.37 0.35 0.35 0.36 0.38 0.41 0.46 0.47 0.50 0.52 0.54 0.60 0.65 0.68 0.72 0.75 0.72 0.70 0.67 0.66 0.66 0.67 0.68 0.67 0.64 0.62 0.61 0.60 0.60 0.59 0.58 0.57 0.56 0.53 0.51 0.51 0.51 0.54 0.50 0.50 0.49 0.50 0.49 0.47 0.47 0.49
0.21 0.21 0.25 0.28 0.28 0.30 0.27 0.29 0.29 0.25 0.23 0.24 0.25 0.27 0.24 0.23 0.26 0.19 0.20 0.21 0.20 0.21 0.20 0.22 0.24 0.27 0.25 0.31 0.33 0.33 0.31 0.31 0.29 0.26 0.27 0.29 0.29 0.31 0.36 0.38 0.36 0.36 0.37 0.38 0.36 0.37 0.44 0.49 0.50 0.52 0.54 0.58 0.62 0.67 0.75 0.74 0.74 0.71 0.66 0.65 0.64 0.66 0.68 0.67 0.64 0.61 0.61 0.60 0.59 0.58 0.57 0.55 0.56 0.54 0.53 0.51 0.52 0.54 0.54 0.52 0.50 0.49 0.50 0.49 0.50 0.51
0.22 0.19 0.26 0.26 0.26 0.26 0.28 0.32 0.32 0.30 0.19 0.23 0.22 0.19 0.21 0.28 0.27 0.25 0.24 0.26 0.25 0.23 0.18 0.23 0.23 0.24 0.27 0.28 0.28 0.28 0.27 0.27 0.27 0.27 0.26 0.27 0.29 0.30 0.31 0.33 0.32 0.28 0.29 0.33 0.37 0.37 0.38 0.50 0.52 0.53 0.56 0.59 0.63 0.65 0.69 0.69 0.70 0.70 0.69 0.67 0.64 0.66 0.70 0.67 0.64 0.62 0.60 0.59 0.57 0.57 0.56 0.56 0.54 0.54 0.52 0.52 0.52 0.53 0.54 0.53 0.51 0.50 0.51 0.52 0.53 0.53
0.19 0.18 0.24 0.23 0.23 0.26 0.31 0.31 0.29 0.28 0.24 0.22 0.19 0.20 0.25 0.25 0.23 0.23 0.20 0.23 0.23 0.19 0.19 0.23 0.21 0.21 0.21 0.18 0.25 0.26 0.28 0.30 0.30 0.29 0.29 0.29 0.30 0.30 0.32 0.33 0.32 0.29 0.27 0.28 0.32 0.37 0.39 0.49 0.55 0.57 0.58 0.59 0.62 0.64 0.66 0.66 0.69 0.74 0.76 0.70 0.63 0.63 0.66 0.68 0.65 0.62 0.59 0.57 0.56 0.57 0.56 0.56 0.55 0.54 0.53 0.53 0.54 0.55 0.54 0.52 0.51 0.51 0.50 0.50 0.52 0.54
0.24 0.15 0.16 0.18 0.19 0.21 0.23 0.23 0.22 0.23 0.24 0.21 0.19 0.23 0.19 0.17 0.16 0.18 0.18 0.15 0.15 0.15 0.16 0.17 0.19 0.20 0.20 0.19 0.23 0.23 0.24 0.25 0.28 0.31 0.28 0.30 0.33 0.32 0.32 0.34 0.34 0.34 0.31 0.29 0.29 0.32 0.37 0.40 0.55 0.57 0.58 0.58 0.60 0.63 0.68 0.70 0.73 0.79 0.78 0.75 0.68 0.62 0.66 0.65 0.64 0.61 0.60 0.59 0.59 0.59 0.58 0.57 0.56 0.55 0.53 0.53 0.55 0.56 0.53 0.51 0.52 0.52 0.53 0.54 0.54 0.52
0.28 0.18 0.17 0.20 0.20 0.22 0.22 0.20 0.15 0.17 0.21 0.22 0.25 0.22 0.24 0.22 0.18 0.16 0.18 0.19 0.18 0.15 0.15 0.14 0.16 0.14 0.17 0.18 0.22 0.22 0.24 0.25 0.25 0.29 0.34 0.32 0.34 0.35 0.34 0.34 0.34 0.34 0.36 0.36 0.34 0.32 0.34 0.36 0.40 0.49 0.54 0.55 0.57 0.57 0.59 0.64 0.68 0.70 0.74 0.73 0.71 0.70 0.68 0.68 0.65 0.62 0.58 0.59 0.59 0.59 0.59 0.59 0.57 0.56 0.55 0.54 0.53 0.53 0.52 0.53 0.53 0.53 0.52 0.52 0.53 0.52
0.25 0.27 0.16 0.20 0.27 0.25 0.19 0.21 0.16 0.17 0.18 0.21 0.23 0.22 0.24 0.24 0.28 0.26 0.24 0.21 0.19 0.18 0.18 0.16 0.15 0.17 0.20 0.24 0.22 0.22 0.24 0.26 0.26 0.29 0.32 0.34 0.34 0.37 0.38 0.36 0.36 0.38 0.39 0.39 0.40 0.38 0.36 0.37 0.39 0.48 0.52 0.53 0.58 0.58 0.57 0.59 0.61 0.67 0.68 0.66 0.67 0.66 0.65 0.67 0.66 0.62 0.60 0.60 0.59 0.58 0.56 0.56 0.57 0.55 0.55 0.55 0.54 0.53 0.53 0.54 0.54 0.54 0.54 0.54 0.51 0.52
0.25 0.25 0.18 0.19 0.20 0.18 0.17 0.19 0.18 0.18 0.20 0.22 0.24 0.23 0.25 0.24 0.23 0.19 0.18 0.28 0.28 0.23 0.21 0.17 0.15 0.18 0.22 0.29 0.30 0.30 0.31 0.30 0.30 0.28 0.29 0.33 0.32 0.33 0.37 0.39 0.42 0.40 0.41 0.42 0.41 0.42 0.41 0.40 0.41 0.45 0.52 0.53 0.55 0.57 0.57 0.60 0.63 0.66 0.67 0.68 0.67 0.67 0.66 0.69 0.68 0.64 0.61 0.59 0.57 0.56 0.57 0.58 0.58 0.57 0.56 0.55 0.55 0.54 0.54 0.55 0.55 0.54 0.54 0.52 0.53 0.54
0.30 0.26 0.22 0.18 0.19 0.19 0.21 0.23 0.27 0.26 0.25 0.25 0.26 0.24 0.26 0.28 0.28 0.23 0.18 0.21 0.26 0.25 0.26 0.24 0.21 0.17 0.24 0.31 0.33 0.34 0.32 0.31 0.33 0.33 0.32 0.34 0.38 0.40 0.44 0.44 0.43 0.47 0.42 0.43 0.44 0.44 0.43 0.42 0.42 0.45 0.48 0.50 0.54 0.57 0.59 0.63 0.64 0.64 0.68 0.67 0.66 0.64 0.64 0.69 0.66 0.64 0.62 0.59 0.56 0.57 0.58 0.60 0.58 0.57 0.56 0.55 0.55 0.55 0.56 0.56 0.56 0.57 0.55 0.54 0.54 0.55
0.29 0.20 0.16 0.15 0.16 0.16 0.16 0.16 0.17 0.18 0.19 0.18 0.19 0.20 0.19 0.18 0.19 0.19 0.19 0.21 0.19 0.20 0.20 0.21 0.19 0.18 0.22 0.29 0.31 0.33 0.33 0.34 0.36 0.35 0.35 0.34 0.35 0.37 0.43 0.43 0.46 0.47 0.51 0.45 0.46 0.47 0.47 0.46 0.44 0.44 0.47 0.48 0.61 0.62 0.66 0.67 0.66 0.71 0.69 0.65 0.63 0.60 0.64 0.71 0.68 0.64 0.62 0.60 0.58 0.58 0.58 0.58 0.59 0.56 0.55 0.55 0.56 0.55 0.55 0.55 0.56 0.57 0.55 0.55 0.55 0.54
0.20 0.25 0.21 0.16 0.15 0.15 0.15 0.17 0.17 0.20 0.21 0.20 0.18 0.19 0.20 0.21 0.23 0.23 0.24 0.26 0.22 0.22 0.22 0.20 0.16 0.17 0.23 0.30 0.32 0.33 0.34 0.32 0.33 0.35 0.36 0.35 0.37 0.39 0.42 0.43 0.43 0.45 0.50 0.50 0.47 0.47 0.47 0.46 0.45 0.44 0.44 0.46 0.53 0.65 0.70 0.67 0.65 0.66 0.65 0.64 0.63 0.62 0.65 0.69 0.68 0.63 0.62 0.59 0.57 0.58 0.57 0.58 0.58 0.56 0.55 0.55 0.55 0.55 0.55 0.56 0.56 0.57 0.56 0.55 0.54 0.53
0.23 0.23 0.22 0.15 0.11 0.08 0.07 0.07 0.09 0.14 0.19 0.20 0.20 0.21 0.23 0.22 0.22 0.22 0.19 0.21 0.19 0.20 0.22 0.22 0.21 0.24 0.27 0.29 0.31 0.33 0.32 0.30 0.31 0.33 0.34 0.36 0.36 0.37 0.39 0.41 0.43 0.44 0.45 0.46 0.48 0.49 0.48 0.48 0.47 0.47 0.46 0.46 0.48 0.60 0.64 0.67 0.63 0.65 0.65 0.64 0.65 0.65 0.66 0.68 0.65 0.62 0.59 0.58 0.56 0.57 0.57 0.58 0.57 0.55 0.54 0.54 0.54 0.54 0.55 0.56 0.56 0.55 0.56 0.55 0.53 0.52
0.21 0.22 0.21 0.19 0.15 0.12 0.12 0.14 0.16 0.18 0.17 0.16 0.18 0.18 0.19 0.21 0.22 0.22 0.22 0.20 0.18 0.20 0.20 0.21 0.22 0.22 0.21 0.21 0.22 0.24 0.27 0.27 0.27 0.28 0.27 0.28 0.31 0.33 0.33 0.35 0.37 0.40 0.44 0.44 0.44 0.46 0.50 0.49 0.46 0.48 0.49 0.49 0.50 0.58 0.66 0.65 0.66 0.68 0.67 0.64 0.65 0.64 0.63 0.63 0.61 0.59 0.57 0.57 0.57 0.57 0.57 0.57 0.55 0.54 0.54 0.55 0.56 0.57 0.56 0.56 0.55 0.54 0.53 0.53 0.51 0.50
0.20 0.16 0.17 0.19 0.17 0.16 0.15 0.14 0.14 0.14 0.12 0.12 0.13 0.14 0.15 0.15 0.16 0.17 0.16 0.16 0.20 0.20 0.15 0.17 0.19 0.20 0.19 0.19 0.19 0.20 0.21 0.22 0.24 0.23 0.22 0.22 0.21 0.22 0.25 0.27 0.28 0.28 0.34 0.40 0.44 0.45 0.46 0.47 0.52 0.49 0.47 0.49 0.51 0.57 0.65 0.69 0.69 0.70 0.67 0.65 0.64 0.63 0.62 0.62 0.60 0.58 0.56 0.56 0.56 0.57 0.57 0.57 0.56 0.55 0.56 0.56 0.56 0.55 0.55 0.53 0.53 0.53 0.53 0.51 0.49 0.47
0.21 0.17 0.20 0.20 0.17 0.17 0.17 0.17 0.18 0.19 0.19 0.18 0.17 0.16 0.13 0.12 0.13 0.14 0.16 0.18 0.18 0.16 0.14 0.16 0.17 0.18 0.17 0.16 0.15 0.15 0.18 0.22 0.23 0.24 0.21 0.19 0.17 0.18 0.20 0.22 0.22 0.21 0.21 0.25 0.34 0.40 0.42 0.44 0.48 0.53 0.51 0.50 0.53 0.52 0.63 0.66 0.64 0.66 0.70 0.67 0.63 0.63 0.63 0.63 0.61 0.58 0.56 0.55 0.55 0.56 0.57 0.57 0.56 0.56 0.55 0.54 0.53 0.52 0.51 0.51 0.51 0.50 0.49 0.48 0.47 0.47
0.21 0.18 0.20 0.21 0.19 0.18 0.19 0.20 0.21 0.20 0.19 0.19 0.17 0.15 0.14 0.15 0.16 0.17 0.17 0.17 0.16 0.15 0.15 0.14 0.13 0.13 0.14 0.13 0.15 0.18 0.20 0.19 0.18 0.17 0.17 0.18 0.19 0.21 0.22 0.23 0.24 0.22 0.21 0.21 0.26 0.33 0.37 0.42 0.45 0.50 0.55 0.54 0.56 0.59 0.54 0.58 0.64 0.68 0.69 0.67 0.64 0.64 0.64 0.62 0.61 0.58 0.55 0.54 0.54 0.55 0.54 0.53 0.54 0.54 0.53 0.52 0.50 0.50 0.50 0.50 0.48 0.48 0.47 0.47 0.46 0.45
0.23 0.19 0.24 0.24 0.20 0.17 0.19 0.22 0.21 0.20 0.18 0.15 0.12 0.10 0.10 0.12 0.13 0.13 0.13 0.14 0.15 0.14 0.14 0.15 0.15 0.14 0.14 0.16 0.18 0.18 0.17 0.16 0.16 0.17 0.18 0.20 0.23 0.24 0.23 0.22 0.23 0.24 0.24 0.25 0.24 0.28 0.31 0.36 0.44 0.53 0.54 0.53 0.55 0.64 0.76 0.65 0.65 0.71 0.70 0.67 0.65 0.65 0.65 0.63 0.59 0.56 0.54 0.54 0.55 0.54 0.52 0.52 0.53 0.53 0.50 0.50 0.49 0.49 0.48 0.47 0.47 0.47 0.46 0.45 0.45 0.44
0.23 0.19 0.22 0.21 0.18 0.15 0.17 0.18 0.17 0.17 0.17 0.15 0.12 0.12 0.14 0.14 0.12 0.11 0.11 0.13 0.12 0.11 0.12 0.13 0.13 0.11 0.13 0.16 0.17 0.15 0.14 0.16 0.18 0.21 0.23 0.27 0.29 0.27 0.26 0.26 0.25 0.26 0.31 0.32 0.33 0.36 0.35 0.38 0.45 0.46 0.47 0.51 0.54 0.59 0.68 0.76 0.70 0.74 0.71 0.66 0.65 0.66 0.66 0.62 0.57 0.55 0.54 0.54 0.53 0.52 0.52 0.52 0.52 0.50 0.48 0.48 0.48 0.47 0.47 0.46 0.45 0.44 0.44 0.44 0.43 0.43
0.22 0.20 0.18 0.17 0.15 0.12 0.15 0.20 0.18 0.16 0.14 0.11 0.10 0.13 0.14 0.14 0.14 0.15 0.15 0.15 0.15 0.16 0.15 0.13 0.13 0.16 0.18 0.20 0.20 0.21 0.22 0.23 0.24 0.27 0.27 0.25 0.26 0.27 0.27 0.26 0.26 0.30 0.31 0.31 0.31 0.35 0.38 0.44 0.50 0.49 0.49 0.50 0.54 0.60 0.71 0.79 0.72 0.73 0.69 0.66 0.65 0.67 0.64 0.61 0.56 0.55 0.53 0.52 0.51 0.52 0.53 0.52 0.49 0.48 0.47 0.47 0.47 0.46 0.45 0.44 0.43 0.42 0.42 0.41 0.42 0.42
0.22 0.21 0.18 0.19 0.15 0.13 0.14 0.16 0.17 0.15 0.10 0.08 0.13 0.16 0.15 0.15 0.15 0.14 0.14 0.15 0.16 0.18 0.17 0.19 0.19 0.23 0.24 0.24 0.24 0.25 0.26 0.25 0.25 0.28 0.32 0.32 0.31 0.31 0.32 0.31 0.31 0.31 0.30 0.31 0.35 0.36 0.38 0.38 0.45 0.57 0.55 0.52 0.55 0.62 0.73 0.77 0.74 0.70 0.68 0.66 0.65 0.64 0.62 0.59 0.56 0.53 0.51 0.50 0.51 0.52 0.52 0.50 0.48 0.46 0.46 0.46 0.46 0.45 0.44 0.43 0.42 0.42 0.42 0.42 0.42 0.41
0.19 0.19 0.17 0.18 0.15 0.13 0.15 0.16 0.15 0.11 0.08 0.11 0.16 0.17 0.18 0.18 0.18 0.17 0.17 0.18 0.19 0.19 0.18 0.20 0.23 0.24 0.29 0.30 0.32 0.34 0.37 0.37 0.38 0.35 0.30 0.30 0.32 0.33 0.32 0.30 0.30 0.30 0.32 0.33 0.35 0.37 0.39 0.42 0.43 0.45 0.58 0.58 0.55 0.59 0.66 0.73 0.69 0.67 0.67 0.66 0.63 0.63 0.61 0.58 0.55 0.53 0.52 0.52 0.52 0.52 0.50 0.49 0.47 0.46 0.45 0.45 0.45 0.44 0.43 0.42 0.42 0.42 0.42 0.41 0.41 0.41
0.19 0.19 0.19 0.18 0.18 0.17 0.14 0.14 0.11 0.10 0.14 0.16 0.17 0.19 0.21 0.21 0.20 0.20 0.17 0.18 0.19 0.20 0.22 0.22 0.24 0.27 0.28 0.29 0.35 0.38 0.35 0.39 0.38 0.35 0.31 0.28 0.28 0.29 0.31 0.32 0.36 0.37 0.35 0.38 0.39 0.40 0.38 0.40 0.45 0.48 0.59 0.63 0.57 0.58 0.61 0.69 0.66 0.66 0.64 0.66 0.62 0.60 0.58 0.57 0.54 0.53 0.53 0.52 0.52 0.51 0.50 0.47 0.46 0.45 0.44 0.44 0.44 0.43 0.43 0.43 0.42 0.41 0.41 0.41 0.40 0.41
0.22 0.21 0.21 0.18 0.20 0.15 0.16 0.16 0.15 0.18 0.17 0.16 0.17 0.21 0.23 0.20 0.23 0.22 0.17 0.19 0.25 0.27 0.27 0.25 0.27 0.29 0.31 0.33 0.36 0.37 0.36 0.33 0.29 0.27 0.29 0.28 0.31 0.39 0.44 0.39 0.36 0.37 0.38 0.39 0.43 0.44 0.42 0.44 0.48 0.53 0.69 0.69 0.62 0.58 0.61 0.62 0.63 0.65 0.64 0.63 0.61 0.58 0.56 0.55 0.53 0.53 0.53 0.53 0.52 0.50 0.50 0.48 0.45 0.44 0.44 0.44 0.43 0.43 0.42 0.42 0.42 0.42 0.41 0.38 0.39 0.39
0.26 0.23 0.23 0.20 0.19 0.21 0.18 0.16 0.17 0.16 0.12 0.12 0.18 0.33 0.34 0.35 0.34 0.34 0.28 0.23 0.26 0.28 0.32 0.30 0.28 0.29 0.30 0.32 0.32 0.34 0.35 0.28 0.22 0.23 0.28 0.31 0.37 0.40 0.40 0.40 0.40 0.39 0.38 0.38 0.42 0.46 0.52 0.54 0.55 0.63 0.71 0.71 0.67 0.64 0.60 0.58 0.59 0.60 0.60 0.60 0.58 0.56 0.54 0.53 0.52 0.52 0.52 0.51 0.50 0.49 0.49 0.47 0.45 0.43 0.43 0.43 0.42 0.42 0.42 0.42 0.41 0.39 0.39 0.37 0.37 0.37
0.22 0.24 0.24 0.23 0.20 0.20 0.19 0.16 0.14 0.12 0.12 0.16 0.20 0.31 0.33 0.32 0.35 0.32 0.26 0.18 0.26 0.33 0.33 0.31 0.28 0.30 0.31 0.30 0.32 0.34 0.30 0.24 0.22 0.25 0.31 0.36 0.38 0.39 0.36 0.36 0.38 0.41 0.43 0.44 0.45 0.48 0.52 0.54 0.61 0.66 0.73 0.72 0.64 0.64 0.63 0.63 0.61 0.60 0.59 0.59 0.56 0.55 0.53 0.52 0.51 0.50 0.49 0.49 0.47 0.47 0.47 0.46 0.45 0.43 0.43 0.42 0.42 0.42 0.40 0.39 0.38 0.37 0.36 0.36 0.37 0.38
0.15 0.17 0.18 0.17 0.16 0.16 0.16 0.15 0.14 0.16 0.16 0.19 0.23 0.30 0.33 0.32 0.33 0.28 0.16 0.15 0.30 0.33 0.35 0.35 0.33 0.30 0.31 0.34 0.35 0.33 0.31 0.27 0.25 0.30 0.39 0.38 0.37 0.38 0.38 0.39 0.41 0.42 0.45 0.52 0.57 0.56 0.56 0.60 0.71 0.76 0.72 0.68 0.69 0.70 0.67 0.65 0.62 0.61 0.59 0.57 0.56 0.53 0.52 0.51 0.51 0.51 0.49 0.47 0.45 0.45 0.44 0.45 0.45 0.45 0.45 0.43 0.42 0.41 0.39 0.38 0.36 0.35 0.35 0.37 0.38 0.38
0.16 0.16 0.16 0.14 0.15 0.16 0.16 0.16 0.17 0.17 0.19 0.25 0.32 0.33 0.35 0.35 0.30 0.18 0.13 0.18 0.29 0.30 0.32 0.35 0.34 0.33 0.30 0.27 0.33 0.36 0.39 0.38 0.38 0.40 0.40 0.39 0.38 0.39 0.42 0.43 0.44 0.47 0.49 0.53 0.58 0.59 0.58 0.60 0.73 0.77 0.78 0.77 0.70 0.66 0.64 0.63 0.61 0.59 0.58 0.55 0.53 0.52 0.52 0.53 0.51 0.48 0.47 0.46 0.45 0.44 0.44 0.45 0.44 0.43 0.43 0.42 0.39 0.38 0.37 0.36 0.35 0.35 0.36 0.36 0.38 0.39
0.17 0.18 0.18 0.19 0.17 0.16 0.16 0.15 0.15 0.16 0.25 0.30 0.31 0.31 0.33 0.27 0.18 0.16 0.24 0.32 0.30 0.30 0.32 0.33 0.31 0.32 0.33 0.30 0.28 0.27 0.35 0.42 0.42 0.42 0.41 0.40 0.40 0.41 0.42 0.42 0.45 0.51 0.55 0.59 0.64 0.66 0.63 0.68 0.71 0.75 0.76 0.74 0.70 0.67 0.64 0.59 0.57 0.55 0.55 0.53 0.50 0.52 0.53 0.53 0.50 0.49 0.46 0.45 0.45 0.43 0.43 0.43 0.44 0.45 0.43 0.41 0.39 0.37 0.36 0.36 0.36 0.37 0.37 0.37 0.36 0.37
0.17 0.16 0.15 0.15 0.16 0.17 0.16 0.15 0.14 0.12 0.23 0.30 0.30 0.26 0.34 0.20 0.21 0.24 0.25 0.26 0.31 0.31 0.31 0.29 0.30 0.32 0.35 0.32 0.32 0.34 0.36 0.38 0.40 0.42 0.42 0.41 0.42 0.43 0.42 0.44 0.46 0.50 0.55 0.58 0.63 0.67 0.68 0.67 0.72 0.70 0.72 0.71 0.67 0.63 0.59 0.57 0.55 0.54 0.52 0.50 0.51 0.53 0.52 0.53 0.49 0.46 0.44 0.43 0.42 0.42 0.43 0.45 0.45 0.43 0.41 0.38 0.38 0.36 0.34 0.34 0.35 0.36 0.36 0.35 0.35 0.37
0.20 0.16 0.16 0.17 0.18 0.15 0.14 0.13 0.13 0.17 0.21 0.32 0.25 0.20 0.28 0.27 0.26 0.26 0.26 0.25 0.33 0.35 0.30 0.30 0.31 0.33 0.36 0.37 0.37 0.37 0.37 0.37 0.40 0.42 0.42 0.41 0.43 0.45 0.45 0.47 0.51 0.55 0.62 0.62 0.65 0.67 0.67 0.68 0.69 0.67 0.66 0.65 0.62 0.60 0.58 0.57 0.54 0.52 0.50 0.51 0.53 0.52 0.49 0.48 0.45 0.43 0.42 0.42 0.42 0.43 0.42 0.41 0.40 0.38 0.36 0.35 0.34 0.32 0.31 0.33 0.34 0.34 0.35 0.34 0.34 0.35
0.21 0.18 0.19 0.17 0.19 0.18 0.16 0.17 0.20 0.24 0.26 0.28 0.28 0.26 0.25 0.29 0.32 0.31 0.30 0.31 0.29 0.33 0.38 0.32 0.31 0.32 0.32 0.36 0.41 0.39 0.37 0.38 0.39 0.41 0.40 0.40 0.42 0.44 0.45 0.48 0.51 0.55 0.61 0.63 0.64 0.65 0.65 0.63 0.62 0.64 0.62 0.62 0.57 0.59 0.59 0.58 0.54 0.51 0.50 0.53 0.52 0.50 0.48 0.47 0.45 0.42 0.42 0.42 0.41 0.40 0.39 0.38 0.35 0.33 0.33 0.32 0.31 0.31 0.32 0.34 0.34 0.32 0.33 0.33 0.33 0.35
0.22 0.21 0.23 0.22 0.19 0.22 0.23 0.23 0.25 0.26 0.26 0.26 0.27 0.27 0.25 0.27 0.32 0.32 0.31 0.29 0.34 0.37 0.37 0.33 0.34 0.36 0.38 0.41 0.40 0.39 0.39 0.39 0.39 0.39 0.40 0.42 0.45 0.47 0.49 0.52 0.53 0.57 0.64 0.66 0.66 0.68 0.64 0.61 0.59 0.62 0.64 0.59 0.55 0.57 0.59 0.57 0.54 0.52 0.52 0.51 0.51 0.49 0.48 0.45 0.43 0.42 0.41 0.39 0.39 0.39 0.35 0.32 0.31 0.31 0.31 0.32 0.32 0.32 0.31 0.32 0.32 0.32 0.32 0.33 0.34 0.35
0.19 0.24 0.24 0.18 0.20 0.18 0.15 0.20 0.22 0.24 0.25 0.25 0.23 0.24 0.25 0.33 0.30 0.32 0.32 0.33 0.38 0.41 0.39 0.38 0.34 0.33 0.38 0.43 0.42 0.39 0.38 0.39 0.38 0.39 0.41 0.45 0.48 0.49 0.51 0.52 0.53 0.60 0.61 0.61 0.63 0.66 0.60 0.56 0.57 0.57 0.61 0.54 0.50 0.54 0.56 0.56 0.55 0.53 0.52 0.51 0.50 0.48 0.46 0.43 0.42 0.42 0.40 0.39 0.38 0.35 0.33 0.32 0.32 0.32 0.33 0.33 0.33 0.33 0.32 0.32 0.32 0.31 0.31 0.31 0.33 0.34
0.17 0.29 0.20 0.19 0.19 0.18 0.17 0.19 0.21 0.24 0.25 0.25 0.24 0.23 0.24 0.33 0.34 0.35 0.34 0.34 0.35 0.36 0.39 0.38 0.34 0.30 0.35 0.38 0.41 0.40 0.38 0.38 0.38 0.40 0.43 0.47 0.50 0.50 0.52 0.54 0.56 0.60 0.62 0.62 0.65 0.60 0.55 0.54 0.54 0.51 0.51 0.53 0.49 0.52 0.53 0.53 0.51 0.52 0.50 0.48 0.47 0.45 0.43 0.42 0.41 0.42 0.40 0.38 0.35 0.34 0.33 0.33 0.34 0.34 0.35 0.35 0.35 0.34 0.33 0.32 0.30 0.29 0.29 0.31 0.32 0.32
0.20 0.21 0.16 0.17 0.16 0.17 0.19 0.20 0.21 0.22 0.22 0.23 0.25 0.36 0.32 0.32 0.32 0.34 0.35 0.37 0.39 0.43 0.42 0.40 0.37 0.37 0.39 0.40 0.42 0.40 0.38 0.39 0.42 0.44 0.46 0.48 0.50 0.51 0.54 0.56 0.59 0.60 0.60 0.64 0.61 0.55 0.53 0.56 0.49 0.56 0.53 0.53 0.52 0.50 0.50 0.51 0.51 0.51 0.49 0.48 0.47 0.45 0.42 0.42 0.39 0.40 0.38 0.37 0.36 0.36 0.35 0.35 0.35 0.35 0.35 0.35 0.36 0.37 0.36 0.33 0.30 0.29 0.30 0.32 0.33 0.34
0.21 0.17 0.19 0.19 0.16 0.16 0.16 0.18 0.22 0.19 0.22 0.29 0.30 0.30 0.30 0.32 0.34 0.36 0.35 0.36 0.40 0.39 0.38 0.34 0.36 0.41 0.42 0.42 0.41 0.40 0.39 0.41 0.45 0.48 0.50 0.53 0.52 0.54 0.56 0.58 0.60 0.60 0.62 0.63 0.59 0.54 0.55 0.55 0.54 0.56 0.55 0.55 0.51 0.51 0.49 0.49 0.49 0.49 0.48 0.47 0.45 0.44 0.43 0.41 0.40 0.39 0.38 0.38 0.38 0.38 0.37 0.37 0.35 0.35 0.35 0.35 0.36 0.36 0.35 0.35 0.32 0.31 0.28 0.30 0.33 0.35
0.18 0.18 0.19 0.18 0.18 0.19 0.23 0.24 0.27 0.28 0.26 0.28 0.29 0.31 0.32 0.34 0.38 0.40 0.37 0.37 0.37 0.36 0.33 0.32 0.34 0.37 0.41 0.42 0.44 0.42 0.43 0.45 0.47 0.51 0.53 0.54 0.54 0.56 0.58 0.59 0.61 0.59 0.58 0.59 0.55 0.53 0.54 0.51 0.51 0.53 0.54 0.55 0.50 0.48 0.48 0.48 0.47 0.47 0.47 0.46 0.45 0.45 0.44 0.42 0.40 0.40 0.39 0.39 0.40 0.39 0.38 0.38 0.38 0.37 0.36 0.36 0.37 0.35 0.33 0.31 0.32 0.31 0.32 0.32 0.34 0.35
Wind_Speed
12 12 13 13 13 12 13 15 14 13 13 13 13 13 14 13 12 11 9 12 14 15 16 17 18 19 19 20 21 21 21 20 20 20 21 21 21 21 21 21 21 21 21 20 21 21 22 22 21 19 18 17 17 17 17 16 16 15 14 14 14 13 13 13 13 13 13 12 12 12 12 12 12 13 13 14 14 15 16 16 17 17 17 18 18 19
12 13 14 15 14 11 11 13 13 14 14 14 15 16 15 14 14 14 12 13 15 16 18 18 20 22 22 22 22 22 22 21 21 21 21 22 22 22 22 21 21 21 21 20 20 21 22 22 22 20 19 17 17 17 17 17 16 15 15 14 14 14 14 13 13 13 13 13 13 12 12 12 12 13 13 13 13 14 15 15 16 16 17 17 18 19
13 14 16 16 14 12 12 12 13 14 15 15 15 17 18 17 17 17 17 17 17 17 18 19 22 23 24 24 24 24 24 22 22 22 22 23 23 22 22 22 21 21 21 21 21 22 22 22 22 21 20 19 18 18 18 17 17 16 15 15 14 14 14 14 14 14 13 13 13 13 13 12 13 13 12 12 12 13 14 15 15 16 16 17 18 19
14 14 15 14 12 14 15 14 14 14 14 16 16 17 18 18 18 16 15 15 16 16 17 19 20 22 22 23 24 24 24 23 21 21 21 22 23 23 22 22 22 22 22 22 22 22 23 23 23 21 20 20 20 19 19 18 17 17 16 15 15 15 15 14 14 14 14 13 13 13 13 12 12 12 12 12 12 13 13 14 15 15 16 17 18 19
17 14 13 13 13 15 16 15 15 15 15 16 17 18 18 18 18 16 14 15 16 17 18 19 20 20 20 21 22 21 22 23 23 22 22 21 22 22 23 23 23 23 22 22 22 22 22 22 23 22 21 21 21 20 19 19 18 17 17 16 16 15 15 15 15 14 14 14 13 13 13 12 12 12 12 12 12 12 13 13 14 15 15 16 17 18
18 15 13 14 15 16 17 17 16 16 16 18 18 19 20 20 19 18 16 17 17 18 19 19 18 18 18 20 21 19 20 22 23 23 23 22 22 22 22 22 22 22 21 20 21 21 21 21 22 22 21 21 21 21 20 20 19 18 18 17 16 16 15 15 15 15 14 14 14 13 13 12 12 12 12 12 12 12 12 13 13 14 14 15 15 16
15 14 14 16 17 16 17 17 17 17 18 17 17 19 20 20 20 20 20 18 17 18 16 16 16 16 17 17 17 18 19 21 21 21 22 22 22 22 22 21 21 21 22 21 21 21 21 22 22 22 22 22 21 21 20 20 20 19 18 18 17 17 16 16 16 15 15 14 14 14 13 13 13 13 13 13 13 13 13 13 13 14 14 15 15 15
14 14 15 16 17 17 17 18 18 18 18 16 15 16 17 18 19 19 20 19 18 18 16 16 17 17 17 17 16 17 18 19 19 19 20 21 22 22 22 21 21 21 21 22 22 21 22 22 22 22 22 22 21 21 21 20 20 20 19 18 18 18 17 17 17 16 16 15 15 15 14 14 14 14 14 14 14 13 14 14 14 14 15 15 15 16
14 15 14 15 17 17 17 17 17 17 17 16 14 14 16 17 17 17 18 18 17 17 18 18 17 16 17 17 17 18 18 18 18 19 19 19 20 21 21 21 21 21 20 21 21 22 22 22 22 22 22 22 21 21 21 20 20 20 20 19 19 18 18 17 17 17 17 16 16 16 16 15 15 15 15 15 15 15 15 15 15 15 16 16 16 16
14 15 15 15 16 16 15 15 16 17 15 14 13 14 15 15 15 16 16 16 17 18 19 19 17 16 16 16 16 17 18 17 17 18 18 17 18 18 19 19 20 20 19 20 21 21 21 22 22 23 23 23 22 22 21 21 20 20 20 20 20 19 18 18 18 18 18 17 17 17 17 17 17 17 17 16 16 16 16 16 16 16 16 17 17 17
15 14 13 15 15 15 15 14 14 14 14 13 13 14 15 16 16 15 15 16 17 18 19 19 19 18 17 16 15 15 16 17 17 17 17 17 17 17 16 17 18 18 19 19 20 20 21 21 22 22 22 23 22 22 21 21 21 21 21 21 21 20 19 19 19 19 19 19 18 19 19 19 19 18 18 18 18 18 18 17 17 17 17 17 18 18
17 16 14 15 15 16 17 16 14 14 14 14 14 14 14 15 15 15 15 15 16 17 17 18 19 19 18 17 14 11 11 14 15 13 14 15 17 17 17 17 17 17 18 19 19 19 20 20 20 21 21 22 22 22 22 21 21 21 21 21 21 21 21 20 20 20 19 19 20 20 20 20 20 20 20 19 19 19 19 18 18 18 18 18 18 19
17 17 16 15 15 16 16 16 15 15 16 15 14 15 15 14 14 15 15 15 17 18 17 17 18 19 19 17 16 14 11 12 14 13 13 15 17 18 18 18 18 18 18 19 19 20 20 20 19 19 20 22 23 22 22 21 21 22 22 22 23 22 21 21 21 21 20 20 20 21 21 21 21 21 21 20 20 20 20 20 20 20 20 19 20 20
14 15 16 15 15 15 16 15 15 15 15 15 15 15 15 14 13 15 15 15 16 16 15 16 16 17 18 16 16 17 16 15 16 16 17 17 17 18 19 19 18 19 19 19 20 20 21 20 19 19 20 21 22 22 22 22 22 22 22 23 23 23 22 21 21 21 21 21 21 21 21 21 21 21 21 21 21 21 21 21 21 21 21 21 21 21
14 13 13 14 13 14 15 15 15 14 14 15 16 16 16 16 14 15 15 14 15 14 14 14 14 14 15 14 14 16 17 17 17 18 18 18 18 18 19 20 19 20 20 20 20 21 21 22 21 20 20 21 21 21 22 22 22 23 23 24 24 23 22 22 21 22 22 22 22 22 22 22 22 22 22 22 22 22 22 22 22 22 22 23 23 23
15 15 13 14 15 15 16 16 16 17 17 16 16 17 18 17 16 17 17 17 18 17 17 17 16 15 16 16 16 18 19 18 18 18 18 19 20 18 19 20 19 20 20 20 21 21 21 23 24 22 21 21 22 22 22 23 24 24 24 24 24 24 23 22 22 22 22 22 22 22 22 22 22 23 23 23 23 23 23 23 23 23 23 24 24 24
15 15 13 14 15 15 16 16 16 17 16 15 15 17 17 17 17 18 18 19 19 19 19 18 18 19 19 20 20 21 22 21 21 21 20 19 19 19 18 19 19 19 20 20 21 21 20 22 24 23 22 22 22 23 24 24 25 25 24 24 24 24 23 23 22 22 22 22 22 22 23 23 23 23 23 23 23 23 23 24 24 24 25 25 25 26
16 17 16 16 17 16 17 18 19 19 19 17 17 17 16 17 17 17 17 17 17 18 19 18 19 20 19 19 19 20 21 21 21 21 20 19 19 19 19 19 19 19 19 20 20 20 20 20 22 23 23 23 24 25 26 26 25 25 25 25 25 25 24 23 23 22 22 23 23 23 23 24 24 24 24 24 24 24 25 25 25 25 26 26 26 27
15 18 18 18 19 19 19 20 21 21 21 21 20 18 17 18 19 18 17 17 18 18 19 20 21 21 20 20 19 20 20 19 19 18 17 18 18 18 19 19 20 19 19 19 19 20 20 20 22 23 24 24 25 25 26 26 25 25 25 26 25 25 25 24 23 23 23 23 23 23 24 24 25 25 25 25 25 26 26 26 26 27 27 27 27 28
16 18 18 18 18 19 18 20 21 20 20 21 21 21 20 19 20 19 18 18 19 19 19 20 21 20 20 20 20 20 19 19 19 17 17 18 19 19 19 19 20 20 19 19 19 20 20 21 22 23 24 24 25 26 26 26 25 25 26 26 26 26 26 25 24 24 24 24 24 24 24 25 25 26 26 26 27 27 27 28 28 28 28 29 29 29
17 19 20 20 19 19 19 19 20 21 20 20 20 20 20 19 19 19 20 20 20 19 19 19 20 19 18 17 18 19 17 16 17 17 17 18 19 20 20 20 21 21 20 20 20 19 20 21 22 22 23 24 25 26 26 26 25 26 26 25 26 26 26 25 25 25 24 24 24 25 25 26 26 26 27 27 28 28 28 29 29 29 30 30 30 30
17 18 20 21 20 21 22 21 22 23 22 21 20 20 20 20 19 19 19 21 20 20 19 19 20 21 19 17 17 18 17 17 17 17 17 17 16 17 19 20 21 22 21 21 20 20 20 21 22 22 23 23 24 26 26 25 26 26 25 25 26 26 26 26 25 25 25 25 25 25 26 26 27 27 27 28 28 29 29 30 30 30 31 31 31 31
18 19 21 23 22 24 25 25 25 26 26 24 23 23 22 21 21 20 20 21 21 22 22 22 22 23 21 19 19 19 19 19 18 18 19 19 17 16 16 17 18 20 22 22 22 22 22 22 22 23 24 24 24 25 25 25 25 25 25 25 26 26 26 26 26 26 26 26 26 26 26 27 27 28 28 28 29 29 30 30 31 31 31 31 31 31
19 19 21 24 24 25 26 26 26 26 26 26 25 25 25 24 23 23 23 23 23 24 24 22 23 24 22 19 19 19 19 19 19 19 20 20 20 19 18 18 18 19 21 22 23 23 23 23 23 24 25 25 24 25 25 25 25 26 26 26 26 26 26 26 26 26 26 26 26 26 26 27 27 28 29 29 29 30 30 31 31 31 31 32 32 32
19 19 20 22 22 22 22 21 21 20 20 21 21 21 22 23 23 24 24 24 24 26 26 24 24 26 24 23 23 23 23 23 23 23 23 23 23 22 22 22 22 22 22 23 24 25 26 26 26 25 26 26 25 25 26 25 26 27 27 27 27 27 27 26 26 26 26 26 26 26 26 27 28 28 29 29 30 30 30 30 31 31 31 32 33 33
21 20 21 22 22 22 21 19 17 16 16 19 20 21 22 23 23 23 23 23 24 27 27 25 26 27 27 27 27 27 26 27 27 26 26 27 27 26 26 26 26 26 26 27 27 27 27 28 28 27 27 28 27 27 27 27 27 27 27 27 28 27 27 27 26 26 26 26 26 26 27 27 28 28 29 29 29 30 30 30 31 32 32 33 34 34
22 23 24 25 25 25 25 24 23 22 22 24 25 26 26 26 26 24 23 24 25 26 27 28 28 29 30 30 30 29 28 29 29 29 30 31 31 31 31 31 30 29 29 30 30 30 29 29 30 31 30 29 28 28 29 29 28 27 27 27 27 27 26 26 26 27 27 27 26 26 27 27 27 28 28 28 29 29 30 30 31 32 32 33 34 35
21 23 25 26 28 29 29 30 29 27 28 28 29 30 30 30 29 28 27 28 27 27 29 29 29 29 31 33 34 34 33 32 32 32 33 34 34 35 35 35 36 35 34 34 34 33 32 31 32 33 34 33 31 30 30 29 29 27 27 27 26 26 26 26 26 26 26 26 26 26 26 26 26 26 27 27 28 28 29 30 31 32 33 34 35 36
20 22 24 26 29 30 30 30 29 28 28 29 30 31 32 32 31 30 29 30 30 30 31 32 33 33 33 36 38 37 35 35 35 36 36 36 37 37 37 37 37 38 38 38 37 37 36 35 33 34 34 33 33 32 31 31 30 29 28 27 26 25 25 25 26 26 25 25 25 25 25 25 25 26 26 27 28 28 29 30 31 32 34 35 36 36
22 23 24 26 28 30 30 29 28 28 29 30 31 34 34 33 31 31 32 32 33 33 34 35 36 36 35 36 37 37 36 37 38 37 37 37 37 37 37 37 38 38 39 39 39 39 39 38 36 34 33 32 32 33 32 33 33 31 29 28 26 25 25 25 25 25 25 25 24 25 25 25 25 26 26 27 27 28 29 30 31 33 34 34 35 36
23 23 24 24 27 29 29 27 27 28 28 30 33 35 34 32 32 32 32 32 32 33 34 33 35 36 35 35 36 37 38 38 38 37 36 35 36 36 37 37 37 38 38 38 38 38 39 39 39 36 34 33 33 33 33 33 33 31 29 28 26 25 25 25 25 25 25 24 24 24 25 25 25 26 26 27 27 28 29 30 31 33 34 34 35 35
22 23 24 24 26 29 28 26 27 28 29 32 36 35 32 31 31 31 31 31 31 32 33 33 34 35 35 35 37 38 37 37 36 35 34 33 34 36 36 37 37 37 38 38 37 37 36 37 38 38 37 35 35 34 34 33 32 30 28 26 26 24 24 24 24 24 24 24 24 24 24 25 25 25 26 26 27 28 29 30 31 33 34 34 34 35
23 23 24 24 26 29 28 26 27 27 28 31 31 28 27 28 29 30 30 31 31 31 32 33 34 34 34 35 35 35 35 35 35 35 34 35 36 37 37 37 38 38 38 38 38 38 37 36 36 37 38 37 36 35 35 34 32 30 28 26 25 24 23 22 23 23 23 23 24 24 24 24 25 25 26 26 27 28 29 31 32 33 33 34 34 34
24 25 24 24 26 29 29 27 26 26 28 29 25 23 25 27 28 30 30 31 31 30 31 32 33 32 33 33 34 34 34 34 34 34 34 35 36 37 38 39 39 39 40 40 39 38 39 39 38 38 39 39 38 37 36 35 34 32 29 26 25 23 23 22 22 22 23 23 23 23 23 24 24 25 26 27 28 29 30 31 32 33 33 33 34 34
25 25 25 24 25 28 28 26 25 27 29 29 26 26 27 28 29 31 31 31 32 32 32 32 32 32 32 33 33 32 32 32 33 34 35 35 36 37 38 39 39 38 39 39 38 38 38 39 40 40 40 40 41 39 38 38 36 33 30 27 25 24 23 22 22 22 23 23 23 23 23 24 24 25 26 27 28 30 31 32 33 33 33 33 34 34
26 25 25 25 25 26 27 25 26 28 30 30 29 28 27 27 27 28 30 31 31 31 31 32 32 32 31 31 31 30 30 32 34 35 35 35 36 35 35 35 35 35 36 37 37 37 37 37 38 39 39 39 40 39 39 39 36 32 30 28 26 25 24 23 23 23 23 23 23 23 23 23 24 25 26 28 29 30 31 32 33 33 33 34 34 35
26 25 24 25 24 25 26 26 26 28 30 30 28 25 23 24 24 25 27 30 30 30 30 30 30 30 30 31 31 31 32 33 34 33 33 33 32 30 29 31 32 33 35 35 35 35 35 35 35 35 36 37 38 39 39 38 36 33 31 29 28 27 25 24 24 23 23 23 23 23 23 24 24 26 27 28 30 31 32 32 32 33 33 34 34 35
26 26 24 24 24 24 25 26 25 26 28 27 24 21 20 22 22 23 26 29 29 28 28 28 28 29 30 31 32 32 31 31 31 30 30 30 29 28 29 30 31 33 34 34 34 33 32 32 33 35 36 35 35 34 34 34 34 32 30 29 27 26 26 25 24 23 23 24 24 24 23 24 25 26 28 29 30 31 31 32 33 33 34 34 34 34
25 25 24 25 26 25 26 26 25 25 27 27 25 22 21 23 23 24 27 28 26 25 26 27 28 28 29 29 30 29 28 29 28 26 26 27 28 29 30 30 31 32 32 31 30 29 28 27 28 30 33 33 31 31 31 32 31 30 28 27 25 25 24 24 23 23 23 22 22 23 23 24 26 27 28 29 30 31 31 32 33 33 33 33 34 34
23 23 23 25 27 27 27 27 26 26 27 27 25 22 22 23 24 25 27 26 24 25 26 26 26 27 28 29 28 26 26 27 27 27 27 28 29 30 30 30 30 30 29 28 26 26 25 24 22 23 27 29 30 30 30 29 28 27 25 24 23 23 23 22 22 21 21 20 21 22 24 25 26 27 27 29 30 31 32 32 33 33 32 33 33 33
22 22 23 25 27 27 28 28 27 27 27 24 24 24 24 23 25 26 27 26 27 29 28 27 27 27 26 26 25 24 24 26 29 30 29 29 29 29 28 28 29 28 26 24 24 23 23 22 21 21 24 27 28 28 27 26 26 25 23 22 22 22 22 21 20 20 20 20 22 23 24 25 25 26 28 29 30 31 31 32 32 32 31 32 32 32
21 22 23 24 26 26 27 27 27 27 25 23 24 25 24 24 25 27 27 29 30 30 29 28 28 28 26 26 26 26 26 28 29 30 30 29 28 28 27 27 27 26 23 21 20 20 21 22 23 22 22 24 25 25 25 24 23 23 22 21 21 21 20 19 19 19 20 21 22 23 24 24 26 27 28 29 30 30 31 31 31 30 30 30 31 30
22 23 24 24 24 25 25 26 26 25 24 23 23 23 23 24 27 28 30 30 29 29 29 28 28 27 27 26 27 28 28 28 28 28 28 28 27 26 26 25 24 22 20 18 16 16 18 20 22 22 22 22 22 22 22 22 22 21 21 21 20 19 19 18 18 19 20 20 21 22 23 24 26 27 28 29 30 30 30 30 29 29 29 29 29 29
23 24 24 24 23 24 25 25 24 24 23 23 24 24 24 26 28 29 29 29 27 26 27 27 26 26 26 26 26 27 27 27 27 26 27 26 25 25 24 23 21 19 17 15 14 15 16 17 19 21 20 20 19 19 20 20 20 19 20 19 18 17 17 17 17 18 19 20 20 21 23 24 25 27 28 29 29 29 29 28 28 27 28 28 28 29
24 24 25 26 25 26 27 28 29 29 29 29 29 30 30 29 28 28 28 27 27 26 25 25 25 25 25 25 25 25 25 25 25 25 25 25 24 22 21 20 18 17 16 14 13 15 17 17 17 17 17 17 18 18 18 17 17 18 17 17 16 16 16 16 17 18 18 19 19 20 22 24 25 26 27 27 27 28 27 27 26 26 26 27 28 29
26 26 26 27 28 29 31 32 32 32 33 33 32 31 31 29 26 25 25 24 25 25 25 24 24 24 23 23 23 23 24 24 25 25 25 24 21 19 18 15 13 13 13 14 14 16 17 17 16 15 15 15 16 17 16 16 16 16 16 15 14 14 14 15 15 16 16 17 18 19 21 23 24 25 25 25 25 25 25 25 25 25 25 26 28 29
28 27 26 28 30 31 32 32 32 32 33 33 32 31 29 26 23 23 22 22 23 24 23 23 23 23 22 22 22 23 23 24 24 24 23 21 19 17 15 13 12 12 13 14 15 16 16 15 15 15 15 14 15 15 15 15 16 15 15 14 14 13 14 14 14 14 15 16 17 19 21 22 22 22 22 23 23 24 24 24 24 24 25 26 28 29
28 28 28 30 30 31 32 33 33 33 34 32 31 28 25 23 23 23 22 22 22 23 22 22 21 22 21 21 22 23 23 23 22 22 21 19 17 15 14 13 13 12 13 14 14 14 14 13 14 15 14 13 14 15 15 15 16 15 14 13 12 12 13 13 13 13 14 15 16 17 19 20 20 20 20 21 22 22 23 23 23 24 25 25 26 27
31 30 30 30 30 31 31 31 29 29 29 27 25 23 22 22 22 22 21 21 21 21 21 21 20 20 20 21 22 22 22 21 20 20 19 17 15 14 13 12 11 11 11 12 12 12 11 11 13 14 13 12 13 14 15 15 15 15 14 12 11 11 11 11 12 13 14 14 14 16 17 18 19 19 19 20 21 21 22 22 23 24 24 24 25 25
30 29 28 28 28 28 26 25 24 23 23 22 22 22 22 21 21 21 22 22 21 21 20 20 19 19 19 20 21 20 19 19 18 18 17 15 14 13 12 12 12 11 10 10 11 11 10 9 10 11 11 11 12 13 13 13 13 13 12 11 11 10 10 11 12 12 13 13 14 15 16 17 17 18 18 19 20 20 21 22 22 23 23 23 23 23
27 27 26 26 26 26 25 25 23 22 23 23 24 23 22 20 20 22 22 21 20 20 20 19 18 18 18 19 19 17 17 17 16 15 14 14 13 12 12 12 12 11 10 10 10 9 9 9 9 9 10 10 10 12 12 12 12 12 11 11 10 10 10 11 12 12 12 13 13 14 15 16 16 17 17 18 18 20 21 22 22 22 22 21 21 23
Wind_Direction
241 245 245 244 247 251 249 243 245 257 264 269 267 262 267 259 245 246 243 238 245 251 252 254 257 258 257 256 257 253 248 247 246 247 249 248 247 246 247 247 248 250 249 248 245 240 242 244 244 244 246 246 245 247 248 249 250 251 252 254 255 255 255 256 256 254 253 253 253 253 255 254 253 256 253 250 252 253 252 253 252 251 251 252 251 250
246 250 249 245 250 257 258 251 251 259 261 264 264 260 263 263 258 258 251 249 257 259 259 261 262 263 264 261 259 254 250 250 248 247 248 247 248 248 248 247 246 248 248 248 246 242 241 242 241 242 243 243 243 245 247 247 249 250 251 252 253 254 253 253 252 251 253 254 254 253 255 255 254 258 257 254 256 255 253 253 253 253 253 254 254 252
247 251 251 248 251 252 253 256 258 261 260 262 263 259 260 262 266 263 253 252 258 261 263 266 266 267 266 262 258 254 252 252 249 246 247 246 248 250 249 248 247 247 247 248 247 245 243 240 239 240 241 242 244 246 246 247 248 249 249 250 251 253 251 250 250 250 252 254 254 255 256 256 254 257 259 259 261 261 258 255 252 253 256 258 257 255
251 255 251 245 250 252 251 254 258 261 260 260 260 258 259 258 263 265 256 254 262 267 269 270 270 269 268 264 257 252 250 252 249 245 245 246 248 249 249 249 249 247 249 249 247 247 245 239 237 239 240 242 245 247 246 246 246 247 248 248 249 250 250 249 249 249 251 252 254 255 255 256 255 254 256 258 261 264 265 260 256 257 260 261 260 257
256 258 248 243 251 254 255 256 257 259 260 261 256 256 259 258 263 267 261 262 268 270 268 269 272 271 267 262 256 252 249 251 251 247 245 245 246 248 248 250 250 248 249 247 247 249 244 236 235 238 240 243 246 246 245 244 245 245 245 245 246 248 248 247 247 247 249 251 252 253 254 256 254 251 253 258 261 265 267 265 263 263 265 265 263 260
257 254 244 247 254 254 257 257 254 256 260 263 257 254 256 258 263 266 266 270 273 272 265 261 268 272 267 260 254 252 250 249 250 250 248 245 245 245 246 248 249 248 248 248 249 248 241 236 237 238 241 244 245 244 243 243 243 243 243 244 244 245 246 245 245 246 248 250 250 251 252 252 251 250 253 258 262 265 266 268 268 267 267 268 267 265
250 247 248 254 257 255 258 259 255 255 259 263 262 258 254 254 259 263 268 271 272 275 265 252 261 274 274 266 256 251 249 248 247 248 250 249 247 247 247 247 246 247 247 248 250 246 240 239 240 240 240 242 242 241 242 242 241 242 242 243 242 243 245 244 245 246 248 249 250 251 251 252 254 253 255 259 261 264 267 268 270 269 269 268 267 267
246 247 251 256 257 256 259 260 257 255 257 260 265 265 258 254 258 262 265 266 267 271 263 251 259 270 271 271 267 256 248 247 244 245 250 252 251 250 248 247 246 248 247 245 246 245 242 240 240 240 239 239 240 240 241 241 241 242 242 242 241 242 245 245 245 247 248 250 250 252 254 255 256 254 256 260 261 263 265 267 269 269 269 269 268 267
255 254 254 256 257 258 260 260 254 250 253 258 262 264 262 260 263 263 262 263 263 265 262 256 258 263 264 267 269 260 249 246 244 246 250 251 252 252 249 248 248 247 246 245 244 244 244 241 238 239 238 238 240 239 240 241 241 242 242 241 240 242 245 246 246 248 249 250 250 252 255 254 254 256 258 259 259 262 264 265 268 269 270 270 269 269
258 257 256 256 256 256 258 257 252 247 250 258 263 264 263 263 265 263 261 263 262 261 262 261 259 262 267 265 263 260 252 246 247 249 249 247 249 251 248 247 249 246 244 245 243 242 244 242 238 239 239 239 241 240 240 241 242 241 241 240 240 241 244 246 247 249 250 250 251 253 254 254 254 257 259 258 259 262 264 265 266 268 269 269 269 269
257 255 256 258 257 253 252 256 256 247 247 257 262 263 261 260 262 262 261 262 264 263 262 262 260 262 268 266 262 265 254 244 249 252 249 246 245 247 248 247 247 246 245 245 242 241 244 243 240 239 239 239 240 240 240 241 242 242 242 240 240 241 244 247 248 249 251 252 253 254 255 256 256 258 259 259 260 262 264 265 265 266 267 267 268 269
254 253 255 258 257 254 252 258 259 249 250 257 258 260 264 261 258 258 258 257 261 265 263 264 261 256 262 262 258 271 261 244 251 253 246 249 246 243 247 248 247 248 247 244 243 243 244 243 241 240 239 239 239 240 240 241 242 242 241 240 240 242 244 247 249 250 252 253 255 256 257 258 258 258 258 259 259 260 262 264 265 266 266 266 267 268
253 253 253 253 253 251 252 255 255 250 252 256 256 257 262 263 259 256 257 257 260 263 262 266 265 257 259 259 253 263 267 250 252 254 255 262 254 245 246 248 249 251 250 246 244 245 244 243 242 239 239 240 239 239 239 240 241 242 242 241 241 243 245 247 249 250 252 254 256 256 258 259 259 259 259 259 260 261 262 264 265 266 266 266 266 267
257 254 252 252 250 246 247 251 252 250 247 248 252 255 257 260 262 261 260 261 262 264 264 266 267 261 260 259 251 256 263 260 257 256 260 269 265 253 249 250 251 251 252 249 246 247 244 242 242 240 241 242 239 239 239 240 242 243 243 243 243 244 245 247 249 251 253 255 257 258 258 259 260 260 260 261 261 262 264 265 265 266 266 267 267 268
260 257 252 254 251 242 242 246 252 258 255 251 252 253 256 260 264 266 265 265 267 271 271 267 264 258 257 258 253 255 262 265 264 260 258 265 269 261 254 253 253 251 252 250 248 248 245 242 242 242 242 244 241 240 242 242 243 245 244 244 245 245 245 247 250 252 254 256 258 258 259 259 260 261 261 262 263 263 265 266 266 267 267 268 268 269
260 259 255 256 252 244 243 247 253 261 262 260 257 254 255 259 263 266 268 270 273 274 270 264 261 260 260 260 258 262 266 266 268 269 263 263 266 264 258 255 254 253 253 251 250 250 247 242 243 243 242 243 243 243 245 246 245 246 247 246 246 246 246 248 251 253 255 257 258 259 259 260 261 261 262 263 263 264 266 267 267 268 268 269 270 271
262 261 261 262 256 246 248 253 254 257 261 263 262 259 259 260 260 264 268 270 271 269 266 262 261 263 265 263 260 263 266 264 267 270 267 264 262 259 257 256 255 256 256 255 253 252 248 243 242 244 242 242 244 245 247 247 246 247 248 248 248 248 247 249 252 254 256 258 259 259 260 261 261 262 262 263 264 265 266 267 268 268 269 270 271 272
265 265 263 264 261 253 253 257 257 256 259 261 262 264 267 266 262 261 264 266 263 263 264 263 262 263 264 265 265 264 263 265 269 268 263 261 259 255 254 254 256 258 257 257 256 253 251 245 241 242 243 245 246 247 247 246 246 247 248 249 249 248 247 249 252 255 257 258 259 260 261 262 262 262 263 263 264 265 267 268 268 269 270 271 272 273
266 267 264 261 261 260 257 258 259 257 255 259 264 266 267 267 265 261 261 264 265 264 265 264 264 264 262 264 268 267 266 269 273 272 265 262 260 257 255 253 254 257 257 257 256 254 253 248 242 242 244 246 248 248 248 247 245 246 247 250 251 249 248 250 252 255 257 259 260 262 263 263 263 263 263 264 265 266 267 268 269 270 271 272 273 274
266 267 267 262 261 264 261 259 261 261 259 261 264 263 262 264 266 265 262 263 264 265 267 267 265 264 263 265 268 270 273 274 272 271 269 267 263 260 259 256 255 255 256 256 257 257 255 252 248 244 245 248 249 248 249 248 245 245 247 249 250 250 250 250 252 255 257 259 261 262 263 264 264 264 264 264 265 266 267 268 270 271 272 273 275 276
267 265 266 265 264 263 260 257 260 263 263 262 262 262 262 262 265 268 266 264 264 265 267 267 266 263 264 268 271 273 276 278 275 271 269 269 266 262 261 260 257 255 255 255 256 259 257 255 251 246 246 250 250 249 248 247 246 245 246 249 250 250 250 250 252 255 258 260 262 263 264 264 265 265 265 265 266 266 268 269 270 272 273 275 276 276
267 266 268 269 265 263 261 262 264 266 266 264 263 264 264 264 266 268 266 264 264 265 266 266 266 265 266 270 273 274 275 278 280 276 272 273 273 270 267 264 258 256 255 255 255 258 259 258 252 247 247 251 251 249 247 246 246 246 246 249 250 251 251 252 253 256 259 261 262 264 264 265 266 266 266 266 267 268 269 270 272 273 274 275 276 277
269 267 269 269 267 266 267 267 267 267 268 266 263 263 265 266 266 264 264 264 264 264 266 267 266 265 266 269 272 274 275 277 279 278 274 273 275 277 275 270 265 261 258 257 256 257 259 259 255 250 250 252 252 249 246 245 245 245 246 249 251 252 252 253 254 257 260 262 263 264 265 266 266 267 267 267 268 269 270 272 273 274 275 276 277 277
273 268 268 270 269 269 270 268 266 264 265 264 263 263 263 264 266 267 268 269 266 264 265 265 265 265 266 269 273 275 275 275 277 277 276 275 274 274 273 271 271 269 265 262 259 258 260 259 257 254 253 253 252 249 246 245 245 246 249 251 251 251 252 253 256 258 260 262 263 265 266 266 267 267 267 268 269 270 272 273 274 275 276 276 277 277
274 270 269 272 272 272 271 269 267 265 263 264 265 265 264 266 269 269 269 269 266 263 264 265 265 266 268 270 272 274 275 275 276 277 277 276 274 273 272 270 268 268 268 267 264 263 261 259 257 257 255 254 251 248 246 246 247 250 251 252 252 252 253 255 257 259 260 262 264 265 266 266 267 267 268 269 270 272 273 274 275 276 276 277 278 278
270 268 269 269 269 270 270 268 269 274 272 269 269 268 268 269 270 270 269 267 264 264 265 266 268 270 271 271 272 273 275 275 276 277 277 276 274 274 273 272 269 267 268 268 267 266 263 259 257 257 256 255 251 247 247 248 250 251 251 252 253 253 253 255 258 260 261 262 264 265 266 267 267 268 269 270 271 273 274 275 275 276 277 278 278 279
269 267 266 266 266 267 269 270 273 278 276 272 271 270 268 268 269 269 268 266 266 269 269 267 269 273 273 272 273 274 276 277 278 278 278 276 273 273 272 271 271 270 268 266 266 265 264 261 259 257 256 256 252 247 247 248 247 249 250 251 251 252 253 256 258 260 261 262 263 264 266 267 268 269 270 271 272 273 274 275 276 277 278 278 279 280
269 266 264 265 266 268 270 272 274 275 273 271 271 270 269 268 268 267 266 267 270 272 270 269 271 272 273 274 274 274 276 277 278 278 278 276 274 272 272 271 271 270 268 266 263 262 262 263 263 259 256 255 252 247 245 246 246 247 248 247 248 251 255 257 258 259 260 261 263 264 265 266 268 269 271 272 273 274 275 277 277 278 278 279 279 280
270 268 266 266 267 268 270 271 272 272 271 270 270 269 268 268 267 267 267 269 270 270 270 272 273 272 272 274 274 275 276 277 277 278 278 276 274 272 271 270 270 269 268 265 263 261 261 261 262 261 257 254 252 249 244 243 245 247 246 245 248 252 254 256 257 258 259 261 262 264 266 267 268 270 271 273 274 276 277 277 278 279 279 280 280 280
271 270 268 267 269 270 270 271 272 273 272 272 270 269 268 268 269 269 269 269 270 270 271 273 274 273 273 273 274 276 277 277 278 278 277 275 273 272 271 271 270 269 268 266 263 262 261 259 258 259 257 253 252 252 249 244 243 244 244 245 249 251 253 255 256 257 259 261 263 265 266 268 270 271 272 274 276 277 278 279 280 280 281 280 280 281
268 268 268 269 271 271 271 273 273 273 273 272 270 269 269 270 271 271 271 271 271 271 272 273 273 273 273 274 276 277 277 277 277 276 275 274 274 273 273 272 272 270 269 268 266 263 261 258 255 254 254 253 250 252 253 246 240 239 242 245 248 249 251 254 255 257 259 261 263 265 267 269 271 272 274 276 277 278 279 280 281 282 282 282 282 282
267 269 270 271 272 273 274 274 274 274 274 272 270 270 270 271 272 271 271 271 271 272 274 274 273 274 276 277 277 277 277 277 276 276 277 276 276 276 276 275 274 273 272 270 268 266 263 260 256 252 251 250 248 248 249 244 237 236 240 244 246 248 251 253 255 256 258 260 263 265 266 269 271 273 275 277 278 279 281 282 283 283 283 283 283 283
267 269 270 270 272 274 275 276 277 278 275 271 272 274 273 272 272 272 271 271 271 272 273 274 274 276 278 279 278 277 277 276 276 276 277 277 278 278 277 277 276 274 273 271 269 266 263 261 259 253 248 246 244 243 242 239 235 236 240 243 245 247 251 253 255 256 257 260 263 264 267 269 271 274 275 277 279 280 282 283 284 285 285 284 284 284
267 267 269 270 271 274 276 278 279 275 270 271 278 280 277 276 276 275 274 274 273 273 274 275 277 278 279 279 278 278 278 277 277 277 278 278 279 278 277 277 276 274 272 270 268 265 262 259 259 255 248 242 240 238 237 236 237 238 239 241 244 249 252 253 254 256 257 260 263 265 267 270 273 275 276 278 280 281 283 284 285 286 286 286 286 286
265 266 268 268 270 274 277 277 272 268 269 276 281 279 278 279 279 278 277 277 277 277 277 279 279 279 279 278 278 279 280 280 280 280 280 281 280 279 277 276 275 275 273 270 267 265 262 258 257 255 250 242 237 235 236 236 236 235 235 240 246 250 253 254 256 258 259 261 264 266 269 272 274 276 277 279 281 283 284 286 287 287 287 287 287 287
263 264 266 268 269 272 273 271 267 270 276 280 280 280 281 281 281 282 279 278 280 282 281 281 281 281 281 281 281 282 282 282 281 280 280 280 280 278 277 277 277 278 276 273 269 266 262 258 254 253 249 241 234 233 234 232 231 231 234 240 247 251 253 256 258 259 260 262 265 268 271 273 275 277 278 280 282 285 286 287 288 289 289 289 289 289
261 262 264 266 266 267 269 269 270 275 279 279 280 284 283 280 282 284 281 280 282 283 282 282 283 284 283 282 283 283 282 281 279 278 278 278 278 279 280 281 281 280 278 274 270 266 262 258 252 249 246 238 232 230 228 225 227 231 236 242 248 251 253 256 258 259 261 263 266 269 272 274 276 278 280 283 286 288 289 290 290 291 291 291 291 290
258 260 262 264 265 266 268 271 273 274 276 279 283 286 283 281 282 282 282 283 284 283 283 284 285 284 282 282 282 282 281 279 277 277 277 276 277 281 283 283 281 281 279 275 269 264 260 256 252 245 239 233 227 223 221 221 226 231 236 242 248 251 253 255 256 259 262 264 267 270 272 274 277 280 283 286 289 291 291 292 292 292 292 292 291 290
259 259 260 261 264 266 267 270 272 272 275 280 285 284 283 285 287 285 284 284 285 286 287 286 285 284 283 283 282 282 280 277 275 278 280 280 282 283 283 283 282 282 281 276 269 262 256 255 253 243 230 222 218 216 218 222 226 230 235 241 245 249 252 253 254 257 261 263 267 270 272 276 280 283 286 289 291 292 293 293 293 293 293 292 291 291
262 262 261 261 264 266 267 268 271 273 277 281 284 283 283 286 288 285 282 283 286 289 289 289 287 284 283 284 283 281 279 277 276 280 282 283 284 282 281 283 283 282 280 276 268 258 250 247 246 235 221 216 216 217 220 223 225 229 234 239 243 248 250 251 253 256 261 265 269 272 275 278 282 285 288 291 293 293 294 294 293 293 293 292 292 292
267 265 265 265 267 268 269 270 272 274 277 281 284 284 284 285 283 280 279 284 287 286 286 287 285 283 281 280 278 277 280 282 281 281 282 283 283 282 282 283 282 279 278 276 268 256 243 234 231 226 219 216 216 218 220 222 225 230 236 240 244 247 248 250 253 257 264 269 270 272 276 280 284 288 290 293 294 294 294 294 293 293 293 294 294 294
270 269 268 268 269 270 271 272 274 276 278 280 282 282 281 280 280 279 282 286 286 284 285 284 283 283 281 278 274 273 278 285 286 283 282 282 282 282 283 283 281 277 274 274 268 254 239 229 226 224 218 214 215 217 220 224 228 233 238 241 244 246 246 249 254 260 266 268 269 272 277 282 286 290 292 294 295 294 294 294 294 294 295 295 296 295
273 273 272 271 271 272 272 272 274 278 280 278 280 282 280 279 281 285 286 286 284 284 285 283 282 283 283 281 277 274 276 283 287 286 283 281 281 282 283 281 279 273 269 269 264 247 232 225 222 220 218 215 216 220 223 227 231 234 238 240 242 243 245 249 256 262 265 267 270 274 279 284 289 292 294 295 295 295 295 295 295 295 295 296 295 295
274 274 274 274 274 274 273 271 274 280 282 279 280 282 282 282 285 287 287 285 284 284 284 283 282 282 283 284 282 278 277 281 285 287 285 282 280 281 281 277 274 267 262 259 248 227 217 214 213 214 215 216 220 226 229 230 230 232 234 236 237 240 244 250 258 263 264 268 273 278 283 288 292 294 295 296 295 295 295 295 295 295 296 296 296 296
274 274 275 275 274 274 274 274 277 281 282 281 282 283 283 284 286 286 285 284 283 283 282 280 280 281 282 283 284 281 278 280 284 286 285 282 280 279 276 272 270 264 254 244 232 217 213 215 214 213 214 219 227 231 229 227 228 228 228 229 232 238 244 251 258 262 265 271 277 283 288 292 294 296 296 295 295 296 296 295 296 297 297 297 298 298
277 279 278 276 277 277 276 276 278 280 280 281 282 282 282 283 283 284 285 284 285 285 282 278 278 281 281 282 285 284 279 279 283 284 283 280 278 274 268 264 266 260 243 232 225 218 219 222 221 218 221 228 232 229 224 223 224 221 220 224 231 238 246 252 257 262 269 276 282 287 291 294 295 296 296 295 297 299 299 299 299 300 299 299 300 301
279 281 280 278 279 279 278 277 278 280 280 281 281 280 279 279 279 280 281 281 282 284 283 279 277 277 277 281 286 285 281 281 283 282 280 277 271 264 255 252 257 253 238 230 227 224 225 228 228 226 228 232 231 224 219 219 219 215 216 223 231 239 247 253 256 263 273 280 285 290 294 295 295 296 297 299 301 302 303 303 302 302 302 301 302 304
280 281 281 280 279 278 278 279 279 279 280 279 278 277 275 274 275 276 277 278 279 280 281 280 278 273 273 280 287 287 283 281 282 281 277 270 262 253 246 248 254 249 238 232 228 224 226 232 232 229 228 228 227 221 216 217 217 213 214 223 233 241 249 255 261 270 277 281 286 293 297 297 297 298 302 304 305 305 307 307 305 305 304 304 305 306
281 280 280 281 280 278 279 280 280 280 280 278 277 276 273 272 274 275 275 276 278 279 280 281 279 273 273 281 288 288 283 280 280 279 273 264 255 246 239 239 242 239 235 232 225 222 227 231 227 223 221 223 223 217 213 213 212 211 215 227 237 242 250 259 268 274 278 281 288 296 301 302 301 303 307 309 309 309 310 310 309 308 307 307 309 309
279 279 279 280 280 279 280 282 282 281 279 277 278 278 274 272 275 276 273 271 276 282 284 282 279 276 277 284 288 285 280 279 280 277 269 258 247 237 233 235 236 237 237 232 224 224 227 225 220 216 213 215 215 210 206 207 208 210 220 232 237 244 256 265 267 270 277 286 294 300 305 306 306 309 312 312 313 314 314 313 312 312 311 311 312 312
278 278 278 278 277 277 280 283 282 278 276 276 277 277 274 272 276 279 276 274 278 283 283 279 277 278 281 286 287 282 279 281 280 273 264 252 238 228 227 232 234 234 234 232 229 227 221 216 218 214 206 206 209 207 205 205 206 212 223 231 237 247 259 264 265 270 281 293 298 300 304 308 310 313 315 317 318 319 318 318 318 316 313 313 314 317